CW0962 Weather Reports


Display with metric or nautical units.
time (UTC)temp
F
wind
direction
speed
MPH
gust
MPH
rain 1hr
in
rain 24hr
in
rain mn
in
humidity
%
barometer
mb
20260502220511 53 158 4.0 8.0 0.00 0.00 0.00 73 1008.2
20260502220008 53 186 5.0 8.0 0.00 0.00 0.00 73 1008.3
20260502215504 53 177 5.0 10.0 0.00 0.00 0.00 72 1008.3
20260502215003 54 188 5.0 10.0 0.00 0.00 0.00 72 1008.3
20260502214042 54 184 4.0 8.0 0.00 0.00 0.00 71 1008.4
20260502213523 54 148 3.0 8.0 0.00 0.00 0.00 71 1008.5
20260502212000 54 151 4.0 10.0 0.00 0.00 0.00 71 1008.5
20260502211510 54 173 5.0 10.0 0.00 0.00 0.00 71 1008.5
20260502211009 54 155 5.0 10.0 0.00 0.00 0.00 71 1008.6
20260502210011 54 212 6.0 13.0 0.00 0.00 0.00 69 1008.7
20260502205500 54 184 6.0 12.0 0.00 0.00 0.00 68 1008.7
20260502205028 55 126 5.0 12.0 0.00 0.00 0.00 68 1008.6
20260502204500 54 165 6.0 12.0 0.00 0.00 0.00 69 1008.6
20260502204029 54 178 7.0 13.0 0.00 0.00 0.00 68 1008.7
20260502203500 54 171 7.0 14.0 0.00 0.00 0.00 68 1008.7
20260502203007 54 189 7.0 14.0 0.00 0.00 0.00 67 1008.8
20260502202505 55 184 7.0 12.0 0.00 0.00 0.00 66 1008.7
20260502202005 55 151 7.0 14.0 0.00 0.00 0.00 65 1008.8
20260502201503 55 178 6.0 14.0 0.00 0.00 0.00 65 1008.8
20260502201049 55 142 5.0 13.0 0.00 0.00 0.00 64 1008.8
20260502200505 55 183 7.0 16.0 0.00 0.00 0.00 65 1008.9
20260502200005 55 191 7.0 16.0 0.00 0.00 0.00 63 1009.0
20260502195504 55 142 6.0 16.0 0.00 0.00 0.00 65 1008.9
20260502195003 55 177 7.0 19.0 0.00 0.00 0.00 64 1009.0
20260502194025 56 163 7.0 19.0 0.00 0.00 0.00 64 1009.1
20260502193502 56 135 8.0 19.0 0.00 0.00 0.00 65 1009.1
20260502193029 56 122 9.0 19.0 0.00 0.00 0.00 64 1009.1
20260502192526 56 165 10.0 19.0 0.00 0.00 0.00 63 1009.2
20260502192030 57 113 9.0 20.0 0.00 0.00 0.00 61 1009.2
20260502191512 57 119 9.0 20.0 0.00 0.00 0.00 60 1009.2
20260502191023 57 171 8.0 16.0 0.00 0.00 0.00 58 1009.2
20260502190507 57 121 8.0 20.0 0.00 0.00 0.00 57 1009.1
20260502190008 57 173 6.0 20.0 0.00 0.00 0.00 54 1009.3
20260502185508 58 165 6.0 11.0 0.00 0.00 0.00 50 1009.4
20260502185029 59 202 6.0 14.0 0.00 0.00 0.00 48 1009.5
20260502184501 58 147 6.0 14.0 0.00 0.00 0.00 49 1009.7
20260502183000 58 194 8.0 18.0 0.00 0.00 0.00 48 1009.7
20260502182525 58 184 6.0 14.0 0.00 0.00 0.00 45 1009.7
20260502182004 59 209 6.0 18.0 0.00 0.00 0.00 43 1009.7
20260502181003 59 143 7.0 20.0 0.00 0.00 0.00 47 1009.7
20260502180502 59 186 8.0 18.0 0.00 0.00 0.00 47 1009.9
20260502170501 58 144 5.0 12.0 0.00 0.00 0.00 53 1009.4
20260502164001 58 176 5.0 12.0 0.00 0.00 0.00 54 1009.7
20260502163515 58 192 6.0 16.0 0.00 0.00 0.00 56 1009.7
20260502163005 58 221 7.0 16.0 0.00 0.00 0.00 58 1009.8
20260502162501 59 128 7.0 12.0 0.00 0.00 0.00 57 1009.8
20260502162044 59 157 7.0 13.0 0.00 0.00 0.00 60 1009.7
20260502161505 57 146 7.0 13.0 0.00 0.00 0.00 64 1009.6
20260502161050 57 146 7.0 13.0 0.00 0.00 0.00 63 1009.7
20260502160501 58 201 7.0 13.0 0.00 0.00 0.00 64 1010.1
20260502152008 60 95 5.0 12.0 0.00 0.00 0.00 60 1010.3
20260502151515 59 107 5.0 12.0 0.00 0.00 0.00 61 1010.3
20260502151028 59 158 5.0 11.0 0.00 0.00 0.00 63 1010.4
20260502150535 58 227 7.0 11.0 0.00 0.00 0.00 61 1010.3
20260502130504 57 234 3.0 8.0 0.00 0.00 0.00 63 1010.7
20260502130109 56 182 4.0 7.0 0.00 0.00 0.00 63 1010.7
20260502123543 56 193 4.0 13.0 0.00 0.00 0.00 66 1010.5
20260502123024 56 212 5.0 11.0 0.00 0.00 0.00 65 1010.5
20260502122506 55 209 5.0 11.0 0.00 0.00 0.00 68 1010.4
20260502122020 54 217 4.0 11.0 0.00 0.00 0.00 69 1010.3
20260502121500 54 159 3.0 8.0 0.00 0.00 0.00 69 1010.4
20260502121029 54 172 3.0 10.0 0.00 0.00 0.00 69 1010.3
20260502120504 53 154 5.0 10.0 0.00 0.00 0.00 69 1010.2
20260502114507 52 169 5.0 10.0 0.00 0.00 0.00 72 1010.3
20260502114001 51 172 4.0 10.0 0.00 0.00 0.00 73 1010.4
20260502113506 50 157 4.0 9.0 0.00 0.00 0.00 74 1010.4
20260502112502 50 200 4.0 10.0 0.00 0.00 0.00 74 1010.4
20260502111509 49 187 4.0 12.0 0.00 0.00 0.00 76 1010.4
20260502111003 49 212 4.0 12.0 0.00 0.00 0.00 76 1010.6
20260502110459 49 244 3.0 7.0 0.00 0.00 0.00 76 1010.4
20260502105505 49 86 4.0 7.0 0.00 0.00 0.00 76 1010.3
20260502105025 48 165 3.0 7.0 0.00 0.00 0.00 77 1010.2
20260502104501 48 247 3.0 8.0 0.00 0.00 0.00 77 1010.2
20260502104015 48 166 3.0 8.0 0.00 0.00 0.00 78 1010.2
20260502103504 47 162 3.0 8.0 0.00 0.00 0.00 77 1010.1
20260502102003 47 147 3.0 8.0 0.00 0.00 0.00 76 1010.3
20260502101030 47 169 2.0 8.0 0.00 0.00 0.00 75 1010.2
20260502100509 46 173 3.0 8.0 0.00 0.00 0.00 75 1010.2
20260502091508 46 162 3.0 6.0 0.00 0.00 0.00 75 1009.9
20260502091004 45 153 2.0 6.0 0.00 0.00 0.00 75 1009.9
20260502090502 45 201 2.0 6.0 0.00 0.00 0.00 75 1010.0
20260502071004 44 195 1.0 2.0 0.00 0.00 0.00 80 1009.9
20260502070510 44 195 1.0 4.0 0.00 0.00 0.00 80 1009.8
20260502065504 44 196 1.0 4.0 0.00 0.00 0.00 81 1009.9
20260502064504 43 194 1.0 6.0 0.00 0.00 0.00 81 1010.0
20260502063528 43 206 1.0 2.0 0.00 0.00 0.00 82 1010.1
20260502063006 43 206 1.0 5.0 0.00 0.00 0.00 82 1010.1
20260502062500 44 206 2.0 6.0 0.00 0.00 0.00 81 1010.1
20260502062007 44 200 2.0 6.0 0.00 0.00 0.00 82 1010.0
20260502061523 43 204 2.0 5.0 0.00 0.00 0.00 83 1010.1
20260502060522 43 223 1.0 2.0 0.00 0.00 0.00 83 1010.0
20260502060006 43 223 1.0 2.0 0.00 0.00 0.00 83 1010.1
20260502055001 43 223 1.0 2.0 0.00 0.00 0.00 82 1010.1
20260502054506 43 223 1.0 2.0 0.00 0.00 0.00 82 1010.2
20260502054030 43 224 1.0 2.0 0.00 0.00 0.00 82 1010.1
20260502053505 43 224 1.0 2.0 0.00 0.00 0.00 82 1010.1
20260502053023 43 224 0.0 1.0 0.00 0.00 0.00 82 1010.2
20260502052501 43 224 0.0 1.0 0.00 0.00 0.00 81 1010.1
20260502052010 43 224 0.0 1.0 0.00 0.00 0.00 81 1010.2
20260502051508 43 224 0.0 1.0 0.00 0.00 0.00 81 1010.2
20260502050525 43 224 1.0 1.0 0.00 0.00 0.00 81 1010.2
20260502050120 43 224 0.0 1.0 0.00 0.00 0.00 81 1010.3
20260502045510 43 224 0.0 0.0 0.00 0.00 0.00 81 1010.2
20260502045007 43 224 0.0 1.0 0.00 0.00 0.00 81 1010.2
20260502044513 44 224 0.0 4.0 0.00 0.00 0.00 81 1010.3
20260502044004 44 224 1.0 4.0 0.00 0.00 0.00 80 1010.3
20260502043522 44 224 1.0 4.0 0.00 0.00 0.00 80 1010.2
20260502043006 44 204 0.0 1.0 0.00 0.00 0.00 79 1010.1
20260502042501 44 204 0.0 0.0 0.00 0.00 0.00 79 1010.1
20260502042002 45 204 0.0 0.0 0.00 0.00 0.00 79 1010.1
20260502041505 45 204 0.0 1.0 0.00 0.00 0.00 78 1010.2
20260502040534 46 204 0.0 1.0 0.00 0.00 0.00 77 1010.2
20260502040059 46 204 0.0 1.0 0.00 0.00 0.00 77 1010.2
20260502035503 46 204 0.0 1.0 0.00 0.00 0.00 77 1010.2
20260502035000 46 204 0.0 1.0 0.00 0.00 0.00 76 1010.2
20260502034007 46 204 1.0 5.0 0.00 0.00 0.00 77 1010.2
20260502033528 46 204 1.0 5.0 0.00 0.00 0.00 77 1010.2
20260502033001 46 207 0.0 4.0 0.00 0.00 0.00 78 1010.2
20260502031500 46 207 0.0 4.0 0.00 0.00 0.00 76 1010.0
20260502030525 46 205 0.0 2.0 0.00 0.00 0.00 76 1009.9
20260502030012 46 205 0.0 2.0 0.00 0.00 0.00 76 1009.9
20260502025508 46 205 1.0 4.0 0.00 0.00 0.00 77 1009.9
20260502025002 46 205 1.0 4.0 0.00 0.00 0.00 76 1009.9
20260502024506 47 131 1.0 2.0 0.00 0.00 0.00 76 1009.8
20260502024005 47 131 1.0 2.0 0.00 0.00 0.00 75 1009.9
20260502023506 47 131 0.0 1.0 0.00 0.00 0.00 74 1009.8
20260502022505 47 131 1.0 4.0 0.00 0.00 0.00 73 1009.8
20260502022011 47 131 1.0 2.0 0.00 0.00 0.00 75 1009.7
20260502021505 47 131 0.0 2.0 0.00 0.00 0.00 75 1009.9
20260502021029 47 131 0.0 1.0 0.00 0.00 0.00 75 1009.8
20260502015504 48 131 0.0 2.0 0.00 0.00 0.00 71 1009.8
20260502015028 49 131 1.0 2.0 0.00 0.00 0.00 71 1009.9
20260502014504 48 130 1.0 2.0 0.00 0.00 0.00 73 1009.9
20260502014036 48 129 1.0 1.0 0.00 0.00 0.00 72 1009.9
20260502013506 49 129 0.0 1.0 0.00 0.00 0.00 73 1009.8
20260502013006 49 129 0.0 1.0 0.00 0.00 0.00 71 1009.7
20260502012512 49 129 0.0 1.0 0.00 0.00 0.00 72 1009.7
20260502012005 49 129 0.0 2.0 0.00 0.00 0.00 71 1009.6
20260502011019 50 129 1.0 2.0 0.00 0.00 0.00 69 1009.4
20260502010008 50 129 1.0 2.0 0.00 0.00 0.00 69 1009.3
20260502005008 51 129 1.0 4.0 0.00 0.00 0.00 67 1009.2
20260502004511 51 128 0.0 4.0 0.00 0.00 0.00 68 1009.3
20260502004004 51 109 0.0 0.0 0.00 0.00 0.00 66 1009.1
20260502003503 52 109 1.0 4.0 0.00 0.00 0.00 64 1009.0
20260502003027 52 109 1.0 4.0 0.00 0.00 0.00 64 1008.8
20260502002502 53 108 1.0 2.0 0.00 0.00 0.00 63 1008.7
20260502002021 53 108 1.0 2.0 0.00 0.00 0.00 62 1008.6
20260502001522 54 107 1.0 4.0 0.00 0.00 0.00 60 1008.5
20260502001005 54 107 2.0 4.0 0.00 0.00 0.00 58 1008.4
20260502000514 54 107 2.0 4.0 0.00 0.00 0.00 59 1008.4
20260502000005 55 91 2.0 4.0 0.00 0.00 0.00 58 1008.3
20260501235502 55 88 1.0 4.0 0.00 0.00 0.00 57 1008.2
20260501235002 56 84 1.0 4.0 0.00 0.00 0.00 55 1008.1
20260501234514 56 84 1.0 4.0 0.00 0.00 0.00 54 1008.1
20260501234007 56 83 1.0 4.0 0.00 0.00 0.00 51 1008.0
20260501233503 56 67 1.0 4.0 0.00 0.00 0.00 52 1007.9
20260501233010 57 67 1.0 2.0 0.00 0.00 0.00 49 1007.9
20260501232510 57 67 1.0 4.0 0.00 0.00 0.00 50 1007.8
20260501232008 58 67 1.0 3.0 0.00 0.00 0.00 49 1007.7
20260501231008 58 67 1.0 4.0 0.00 0.00 0.00 47 1007.6
20260501230552 58 66 1.0 3.0 0.00 0.00 0.00 47 1007.4
20260501225526 59 59 1.0 2.0 0.00 0.00 0.00 47 1007.3
20260501225023 59 59 1.0 4.0 0.00 0.00 0.00 44 1007.2
20260501224513 59 59 1.0 4.0 0.00 0.00 0.00 43 1007.2
20260501224009 60 59 1.0 4.0 0.00 0.00 0.00 39 1007.2
20260501223018 60 315 2.0 5.0 0.00 0.00 0.00 39 1007.0
20260501222503 60 348 2.0 5.0 0.00 0.00 0.00 39 1007.1